Weather Roundup
Issued by NWS Chicago, IL

Home | Current Version | Previous Version | Text Only | Print | Product List | Glossary On
Versions: 1 2 3 4 5 6 7 8 9 10 11 12 13 14 15 16 17 18 19 20 21 22 23 24 25 26 27 28 29 30 31 32 33 34 35 36 37 38 39 40 41 42 43 44 45 46 47 48 49 50
208
NZUS59 KLOT 132003
HRRLOT

CHICAGO AREA WEATHER ROUNDUP
NATIONAL WEATHER SERVICE CHICAGO/ROMEOVILLE IL
200 PM CST SAT FEB 13 2016

NOTE: "FAIR" INDICATES FEW OR NO CLOUDS BELOW 12,000 FEET WITH NO
SIGNIFICANT WEATHER AND/OR OBSTRUCTIONS TO VISIBILITY.

* THESE STATIONS ARE NOT UNDER NWS QUALITY CONTROL. THEY ALSO MAY NOT
  REPORT WEATHER SUCH AS PRECIPITATION OR FOG.

ILZ005-006-012>014-019>023-132100-
NORTHEAST ILLINOIS

CITY           SKY/WX    TMP DP  RH WIND       PRES   REMARKS
OHARE          MOSUNNY   15  -6  39 W7        30.53F WCI   5
MIDWAY         MOSUNNY   18  -8  31 NW12      30.54F WCI   5
AURORA         SUNNY     16  -4  41 NW7       30.54F WCI   6
LANSING*       SUNNY     17 -10  30 NW3       30.54F
WAUKEGAN       SUNNY     13  -5  44 NW8       30.52F WCI   2
DUPAGE AIRPORT SUNNY     14  -5  42 CALM      30.53F
WHEELING       SUNNY     14  -5  42 W10       30.55F WCI   1
$$

WIZ051-052-058>065-066-070>072-132100-
SOUTHEAST WISCONSIN

CITY           SKY/WX    TMP DP  RH WIND       PRES   REMARKS
MILWAUKEE      MOSUNNY   11  -9  40 W13       30.53F WCI  -4
KENOSHA*       SUNNY     13  -5  44 NW13      30.53F WCI  -2
RACINE*        SUNNY     13  -9  37 NW12      30.54F WCI  -1
BURLINGTON     SUNNY     11  -8  42 W9        30.53F WCI  -2
WAUKESHA       SUNNY      3  -8  60 NW14      30.52F WCI -15
$$

INZ001>003-010>013-019-020-132100-
NORTHWEST INDIANA

CITY           SKY/WX    TMP DP  RH WIND       PRES   REMARKS
GARY*          MOSUNNY   18 -13  25 SW5       30.55F WCI  11
MICHIGAN CITY* NOT AVBL
RENSSELAER*    NOT AVBL
VALPARAISO     SUNNY     15  -2  46 VRB6      30.53F WCI   6
$$

LMZ740>746-132100-
SOUTHERN LAKE MICHIGAN

STATION/POSITION TIME  SKY/WX   TEMP WIND        PRES    VSBY
                                AIR  DIR/SP/G
                 (UTC)          (F)  (DEG/KT/KT) (MB)    (MI)
HARRISON CRIB    1900            13  330/  7/  9   N/A
BURNHAM HARBOR   2000            17  270/  7/ 12   N/A
CALUMET HARBOR   1900            14  280/  5/ 11 1034.0F
BURNS HARBOR     1900            12  310/  8/ 13 1035.2F
MICHIGAN CITY    1900            13  280/ 13/ 18   N/A
$$

ABBREVIATIONS USED IN REMARKS
   TC - TEMPERATURE IN CELSIUS
  WCI - WIND CHILL INDEX
   HX - HEAT INDEX
  VSB - VISIBILITY
$$




USA.gov is the U.S. government's official web portal to all federal, state and local government web resources and services.